Terminal Aerodrome Forecast
Issued by NWS

Home | Current Version | Previous Version | Text Only | Print | Product List | Glossary On
Versions: 1 2 3 4 5 6 7 8 9 10 11 12 13
000
FTUS45 KMSO 021738
TAFSMN
TAF
KSMN 021738Z 0218/0318 VRB03KT P6SM BKN050
     FM031200 VRB04KT P6SM VCSH SCT035 OVC050
      AMD LTD TO CLD VIS AND WIND=

USA.gov is the U.S. government's official web portal to all federal, state and local government web resources and services.